TimeMST,TemperatureF,Dew PointF,Humidity,Sea Level PressureIn,VisibilityMPH,Wind Direction,Wind SpeedMPH,Gust SpeedMPH,PrecipitationIn,Events,Conditions,WindDirDegrees,DateUTC
12:53 AM,8.1,3.9,83,30.40,10.0,SW,6.9,-,N/A,,Clear,220,2013-01-03 07:53:00
1:53 AM,7.0,3.9,87,30.40,10.0,South,3.5,-,N/A,,Clear,170,2013-01-03 08:53:00
2:53 AM,3.9,1.0,88,30.41,10.0,SSE,5.8,-,N/A,,Clear,160,2013-01-03 09:53:00
3:53 AM,3.9,-0.0,84,30.39,10.0,SSE,5.8,-,N/A,,Clear,150,2013-01-03 10:53:00
4:53 AM,1.9,-0.9,88,30.38,10.0,SSE,3.5,-,N/A,,Clear,150,2013-01-03 11:53:00
5:06 AM,1.4,-2.2,85,30.23,7.0,SSE,5.8,-,N/A,,Scattered Clouds,160,2013-01-03 12:06:00
5:11 AM,1.4,-0.4,92,30.23,2.0,SSE,5.8,-,N/A,,Mostly Cloudy,160,2013-01-03 12:11:00
5:15 AM,3.2,-0.4,85,30.23,0.8,SSE,5.8,-,N/A,,Mist,160,2013-01-03 12:15:00
5:28 AM,3.2,-0.4,85,30.23,2.0,SSE,8.1,-,N/A,,Mostly Cloudy,160,2013-01-03 12:28:00
5:32 AM,3.2,-0.4,85,30.23,7.0,SSE,8.1,-,N/A,,Scattered Clouds,160,2013-01-03 12:32:00
5:53 AM,3.0,-0.9,84,30.36,10.0,SSE,9.2,-,N/A,,Clear,160,2013-01-03 12:53:00
6:53 AM,1.9,-2.0,83,30.34,10.0,SSE,6.9,-,N/A,,Clear,160,2013-01-03 13:53:00
7:53 AM,3.9,-0.9,80,30.34,10.0,SSE,8.1,-,N/A,,Clear,160,2013-01-03 14:53:00
8:53 AM,6.1,1.9,83,30.35,10.0,SSE,9.2,-,N/A,,Clear,160,2013-01-03 15:53:00
9:53 AM,9.0,3.9,80,30.35,10.0,SSE,5.8,-,N/A,,Clear,160,2013-01-03 16:53:00
10:53 AM,10.0,5.0,80,30.33,10.0,South,8.1,-,N/A,,Clear,170,2013-01-03 17:53:00
11:53 AM,14.0,8.1,77,30.29,10.0,South,6.9,-,N/A,,Clear,180,2013-01-03 18:53:00
12:53 PM,19.9,10.0,65,30.25,10.0,South,3.5,-,N/A,,Clear,170,2013-01-03 19:53:00
1:53 PM,23.0,12.0,63,30.23,10.0,South,4.6,-,N/A,,Clear,190,2013-01-03 20:53:00
2:53 PM,23.0,12.0,63,30.23,10.0,Calm,Calm,-,N/A,,Clear,0,2013-01-03 21:53:00
3:53 PM,21.9,12.0,66,30.24,10.0,South,5.8,-,N/A,,Clear,170,2013-01-03 22:53:00
4:53 PM,21.0,10.9,65,30.24,10.0,South,8.1,-,N/A,,Clear,170,2013-01-03 23:53:00
5:53 PM,19.0,9.0,65,30.25,10.0,South,8.1,-,N/A,,Clear,170,2013-01-04 00:53:00
6:53 PM,19.0,10.9,71,30.25,10.0,South,4.6,-,N/A,,Clear,190,2013-01-04 01:53:00
7:53 PM,18.0,9.0,68,30.25,10.0,Calm,Calm,-,N/A,,Clear,0,2013-01-04 02:53:00
8:53 PM,18.0,10.0,71,30.25,10.0,South,3.5,-,N/A,,Clear,190,2013-01-04 03:53:00
9:53 PM,14.0,8.1,77,30.25,10.0,South,5.8,-,N/A,,Clear,180,2013-01-04 04:53:00
10:53 PM,12.9,7.0,77,30.25,10.0,SSE,5.8,-,N/A,,Clear,160,2013-01-04 05:53:00
11:53 PM,12.9,6.1,74,30.24,10.0,SSE,8.1,-,N/A,,Clear,160,2013-01-04 06:53:00